2023/01/24 00:00:00, 8.3,-0.2
2023/01/24 00:10:00, 8.3,-0.2
2023/01/24 00:20:00, 8.3, 0.0
2023/01/24 00:30:00, 8.3,-0.2
2023/01/24 00:40:00, 8.4,-0.5
2023/01/24 00:50:00, 8.5, 0.2
2023/01/24 01:00:00, 8.5, 0.1
2023/01/24 01:10:00, 8.4, 0.2
2023/01/24 01:20:00, 8.5,-0.1
2023/01/24 01:30:00, 8.5,-0.2
2023/01/24 01:40:00, 8.5, 0.1
2023/01/24 01:50:00, 8.6, 0.1
2023/01/24 02:00:00, 8.5,-0.4
2023/01/24 02:10:00, 8.6,-0.2
2023/01/24 02:20:00, 8.5,-0.7
2023/01/24 02:30:00, 8.5,-0.3
2023/01/24 02:40:00, 8.5,-0.7
2023/01/24 02:50:00, 8.5,-0.6
2023/01/24 03:00:00, 8.5,-0.8
2023/01/24 03:10:00, 8.6,-0.6
2023/01/24 03:20:00, 8.5,-0.4
2023/01/24 03:30:00, 8.5,-0.7
2023/01/24 03:40:00, 8.5,-0.6
2023/01/24 03:50:00, 8.5,-0.9
2023/01/24 04:00:00, 8.5,-0.6
2023/01/24 04:10:00, 8.5,-1.4
2023/01/24 04:20:00, 8.5,-1.2
2023/01/24 04:30:00, 8.5,-1.4
2023/01/24 04:40:00, 8.5,-1.2
2023/01/24 04:50:00, 8.5,-1.4
2023/01/24 05:00:00, 8.5,-1.2
2023/01/24 05:10:00, 8.5,-1.2
2023/01/24 05:20:00, 8.5,-0.8
2023/01/24 05:30:00, 8.7,-0.4
2023/01/24 05:40:00, 8.9,-0.4
2023/01/24 05:50:00, 8.9,-0.4
2023/01/24 06:00:00, 9.0,-0.2
2023/01/24 06:10:00, 9.0,-0.4
2023/01/24 06:20:00, 9.4,-0.6
2023/01/24 06:30:00, 9.8,-0.4
2023/01/24 06:40:00,10.5,-0.4
2023/01/24 06:50:00,11.2,-0.7
2023/01/24 07:00:00,11.2,-0.8
2023/01/24 07:10:00,11.3,-0.7
2023/01/24 07:20:00,11.3,-1.0
2023/01/24 07:30:00,11.9,-1.0
2023/01/24 07:40:00,12.8,-0.8
2023/01/24 07:50:00,13.5,-0.9
2023/01/24 08:00:00,14.0,-0.9
2023/01/24 08:10:00,14.1,-1.1
2023/01/24 08:20:00,14.2,-0.5
2023/01/24 08:30:00,15.0,-1.2
2023/01/24 08:40:00,15.5,-1.2
2023/01/24 08:50:00,15.9,-1.3
2023/01/24 09:00:00,16.0,-1.4
2023/01/24 09:10:00,16.7,-1.4
2023/01/24 09:20:00,17.1,-1.7
2023/01/24 09:30:00,18.2,-1.7
2023/01/24 09:40:00,19.0,-2.1
2023/01/24 09:50:00,19.6,-2.0
2023/01/24 10:00:00,20.3,-2.2
2023/01/24 10:10:00,20.8,-2.0
2023/01/24 10:20:00,21.2,-2.6
2023/01/24 10:30:00,21.8,-2.9
2023/01/24 10:40:00,22.5,-2.6
2023/01/24 10:50:00,23.2,-2.8
2023/01/24 11:00:00,23.9,-2.9
2023/01/24 11:10:00,24.7,-2.4
2023/01/24 11:20:00,25.1,-2.4
2023/01/24 11:30:00,25.2,-1.4
2023/01/24 11:40:00,25.3,-0.6
2023/01/24 11:50:00,25.2,-0.8
2023/01/24 12:00:00,25.1,-0.4
2023/01/24 12:10:00,25.1,-1.7
2023/01/24 12:20:00,25.3,-2.2
2023/01/24 12:30:00,25.8,-2.8
2023/01/24 12:40:00,26.6,-3.5
2023/01/24 12:50:00,26.7,-1.6
2023/01/24 13:00:00,26.6,-2.0
2023/01/24 13:10:00,26.6,-2.8
2023/01/24 13:20:00,26.6,-3.2
2023/01/24 13:30:00,26.4,-2.7
2023/01/24 13:40:00,26.3,-3.2
2023/01/24 13:50:00,26.3,-3.1
2023/01/24 14:00:00,26.2,-2.3
2023/01/24 14:10:00,26.0,-2.8
2023/01/24 14:20:00,25.6,-4.1
2023/01/24 14:30:00,25.0,-4.7
2023/01/24 14:40:00,24.7,-4.6
2023/01/24 14:50:00,24.8,-5.4
2023/01/24 15:00:00,25.5,-6.2
2023/01/24 15:10:00,26.6,-6.4
2023/01/24 15:20:00,28.5,-6.3
2023/01/24 15:30:00,31.4,-6.1
2023/01/24 15:40:00,33.0,-6.1
2023/01/24 15:50:00,34.0,-6.0
2023/01/24 16:00:00,35.0,-6.0
2023/01/24 16:10:00,36.1,-5.9
2023/01/24 16:20:00,37.5,-6.3
2023/01/24 16:30:00,39.2,-6.3
2023/01/24 16:40:00,40.8,-6.5
2023/01/24 16:50:00,42.4,-6.8
2023/01/24 17:00:00,43.9,-6.6
2023/01/24 17:10:00,45.9,-6.7
2023/01/24 17:20:00,47.3,-6.7
2023/01/24 17:30:00,48.8,-6.6
2023/01/24 17:40:00,50.6,-7.0
2023/01/24 17:50:00,52.3,-7.1
2023/01/24 18:00:00,53.9,-6.4
2023/01/24 18:10:00,55.5,-6.7
2023/01/24 18:20:00,57.1,-6.7
2023/01/24 18:30:00,58.8,-6.4
2023/01/24 18:40:00,60.7,-6.5
2023/01/24 18:50:00,62.3,-6.4
2023/01/24 19:00:00,63.8,-6.7
2023/01/24 19:10:00,64.9,-6.3
2023/01/24 19:20:00,66.3,-6.8
2023/01/24 19:30:00,67.8,-6.8
2023/01/24 19:40:00,68.8,-6.8
2023/01/24 19:50:00,69.8,-6.7
2023/01/24 20:00:00,70.6,-6.9
2023/01/24 20:10:00,71.5,-6.9
2023/01/24 20:20:00,72.3,-7.8
2023/01/24 20:30:00,72.9,-7.1
2023/01/24 20:40:00,72.6,-6.8
2023/01/24 20:50:00,72.4,-6.9
2023/01/24 21:00:00,72.4,-7.3
2023/01/24 21:10:00,72.4,-7.3
2023/01/24 21:20:00,72.9,-7.3
2023/01/24 21:30:00,73.2,-7.2
2023/01/24 21:40:00,73.5,-7.6
2023/01/24 21:50:00,73.7,-7.4
2023/01/24 22:00:00,74.1,-7.7
2023/01/24 22:10:00,74.4,-7.8
2023/01/24 22:20:00,75.0,-7.6
2023/01/24 22:30:00,75.3,-7.6
2023/01/24 22:40:00,76.2,-7.5
2023/01/24 22:50:00,76.7,-7.3
2023/01/24 23:00:00,77.0,-7.8
2023/01/24 23:10:00,77.1,-7.5
2023/01/24 23:20:00,77.2,-7.8
2023/01/24 23:30:00,77.4,-7.5
2023/01/24 23:40:00,77.9,-7.8
2023/01/24 23:50:00,78.4,-7.8
